Walhalla, ND

7:42 PM CDT on August 27, 2016 (GMT -0500)
Walhalla

Weather History for K96D - August, 2013

Change the Weather History Date:

Tuesday, August 6, 2013

  Actual Average (KGAF) Record (KGAF)
Temperature  
Mean Temperature 60 °F -  
Max Temperature 66 °F 83 °F 99 °F (1961)
Min Temperature 53 °F 56 °F 42 °F (1976)
Degree Days  
Heating Degree Days 6    
Growing Degree Days 10 (Base 50)    
Moisture  
Dew Point 56 °F    
Average Humidity 87    
Maximum Humidity 100    
Minimum Humidity 49    
Precipitation  
Precipitation 0.03 in - - ()
Sea Level Pressure  
Sea Level Pressure 29.81 in    
Wind  
Wind Speed 6 mph (North)    
Max Wind Speed 16 mph    
Max Gust Speed 23 mph    
Visibility 10 miles    
Events Rain    
Averages and records for this station are not official NWS values.
T = Trace of Precipitation, MM = Missing Value Source: NWS Daily Summary

Daily Weather History Graph

Daily Weather History Graph

Search for Another Location

Airport or City:

Trip Planner

Search our weather history database for the weather conditions in past years. The results will help you decide how hot, cold, wet, or windy it might be!

Date:

Astronomy

Aug. 06, 2013 Rise Set
Actual Time 6:11 AM CDT 9:02 PM CDT
Civil Twilight 5:35 AM CDT 9:38 PM CDT
Nautical Twilight 4:48 AM CDT 10:24 PM CDT
Astronomical Twilight 3:51 AM CDT 11:20 PM CDT
Moon 6:09 AM CDT (8/6) 8:29 PM CDT (8/6)
Length of Visible Light 16h 03m
Length of Day
14h 50m
Waning Crescent, 0% of the Moon is Illuminated
Aug 6
Waning Crescent
Aug 6
New
Aug 14
First Quarter
Aug 20
Full
Aug 28
Last Quarter

Hourly Weather History & Observations

Time (CDT) Temp. Dew Point Humidity Pressure Visibility Wind Dir Wind Speed Gust Speed Precip Events Conditions
12:15 AM 62.6 °F 62.6 °F 100% 29.77 in 10.0 mi NNE 4.6 mph - N/A   Partly Cloudy
12:35 AM 62.6 °F 62.6 °F 100% 29.77 in 10.0 mi Calm Calm - N/A   Mostly Cloudy
12:55 AM 62.6 °F 62.6 °F 100% 29.77 in 10.0 mi Calm Calm - N/A   Overcast
1:15 AM 60.8 °F 60.8 °F 100% 29.76 in 10.0 mi West 4.6 mph - N/A   Overcast
1:35 AM 59.0 °F 59.0 °F 100% 29.75 in 10.0 mi Calm Calm - N/A   Mostly Cloudy
1:55 AM 59.0 °F 59.0 °F 100% 29.75 in 10.0 mi Calm Calm - N/A   Overcast
2:15 AM 59.0 °F 59.0 °F 100% 29.74 in 10.0 mi Calm Calm - N/A   Overcast
2:35 AM 59.0 °F 59.0 °F 100% 29.75 in 10.0 mi Calm Calm - N/A   Overcast
2:55 AM 60.8 °F 60.8 °F 100% 29.75 in 10.0 mi NNW 4.6 mph - N/A   Overcast
3:15 AM 60.8 °F 60.8 °F 100% 29.75 in 10.0 mi Calm Calm - N/A   Overcast
3:35 AM 59.0 °F 59.0 °F 100% 29.73 in 10.0 mi Calm Calm - N/A Rain Light Rain
3:55 AM 59.0 °F 59.0 °F 100% 29.74 in 10.0 mi Calm Calm - N/A   Overcast
4:15 AM 59.0 °F 59.0 °F 100% 29.73 in 10.0 mi Calm Calm - N/A   Overcast
4:35 AM 59.0 °F 59.0 °F 100% 29.72 in 5.0 mi Calm Calm - 0.01 in Rain Light Rain
4:55 AM 59.0 °F 59.0 °F 100% 29.73 in 7.0 mi North 5.8 mph - 0.02 in Rain Light Rain
5:15 AM 59.0 °F 59.0 °F 100% 29.73 in 10.0 mi North 3.5 mph - N/A   Mostly Cloudy
5:35 AM 59.0 °F 59.0 °F 100% 29.73 in 10.0 mi North 4.6 mph - N/A   Overcast
5:55 AM 59.0 °F 59.0 °F 100% 29.73 in 10.0 mi NNW 4.6 mph - N/A   Overcast
6:15 AM 59.0 °F 59.0 °F 100% 29.73 in 10.0 mi North 5.8 mph - N/A   Overcast
6:35 AM 59.0 °F 59.0 °F 100% 29.74 in 10.0 mi North 4.6 mph - N/A   Overcast
6:55 AM 59.0 °F 59.0 °F 100% 29.74 in 10.0 mi North 5.8 mph - N/A   Overcast
7:15 AM 59.0 °F 59.0 °F 100% 29.74 in 10.0 mi NNW 6.9 mph - N/A   Overcast
7:35 AM 59.0 °F 59.0 °F 100% 29.75 in 10.0 mi North 5.8 mph - N/A   Overcast
7:55 AM 59.0 °F 59.0 °F 100% 29.75 in 10.0 mi NNW 4.6 mph - N/A   Overcast
8:15 AM 59.0 °F 59.0 °F 100% 29.75 in 10.0 mi North 5.8 mph - N/A   Overcast
8:35 AM 59.0 °F 59.0 °F 100% 29.76 in 8.0 mi North 5.8 mph - N/A Rain Light Rain
8:55 AM 59.0 °F 59.0 °F 100% 29.76 in 5.0 mi North 8.1 mph - 0.01 in Rain Light Rain
9:15 AM 59.0 °F 59.0 °F 100% 29.76 in 10.0 mi NNE 8.1 mph - N/A Rain Light Rain
9:35 AM 59.0 °F 59.0 °F 100% 29.76 in 10.0 mi North 8.1 mph - N/A Rain Light Rain
9:55 AM 60.8 °F 60.8 °F 100% 29.77 in 10.0 mi NNE 9.2 mph - N/A   Mostly Cloudy
10:15 AM 60.8 °F 60.8 °F 100% 29.77 in 10.0 mi North 8.1 mph - N/A   Overcast
10:35 AM 62.6 °F 62.6 °F 100% 29.78 in 10.0 mi North 9.2 mph - N/A   Overcast
10:55 AM 62.6 °F 62.6 °F 100% 29.78 in 10.0 mi North 8.1 mph - N/A   Overcast
11:15 AM 62.6 °F 62.6 °F 100% 29.79 in 10.0 mi North 11.5 mph - N/A   Overcast
11:35 AM 62.6 °F 62.6 °F 100% 29.79 in 10.0 mi North 11.5 mph - N/A   Mostly Cloudy
11:55 AM 62.6 °F 62.6 °F 100% 29.79 in 10.0 mi NNE 11.5 mph - N/A   Mostly Cloudy
12:15 PM 62.6 °F 62.6 °F 100% 29.79 in 10.0 mi NNE 13.8 mph 20.7 mph N/A   Mostly Cloudy
12:35 PM 62.6 °F 62.6 °F 100% 29.79 in 10.0 mi NNE 15.0 mph - N/A   Mostly Cloudy
12:55 PM 62.6 °F 62.6 °F 100% 29.80 in 10.0 mi North 15.0 mph - N/A   Overcast
1:15 PM 62.6 °F 57.2 °F 82% 29.81 in 10.0 mi North 16.1 mph - N/A   Mostly Cloudy
1:35 PM 60.8 °F 59.0 °F 94% 29.82 in 10.0 mi North 10.4 mph - N/A Rain Light Rain
1:55 PM 59.0 °F 55.4 °F 88% 29.83 in 10.0 mi North 15.0 mph 19.6 mph N/A Rain Light Rain
2:15 PM 59.0 °F 55.4 °F 88% 29.83 in 10.0 mi North 9.2 mph - N/A Rain Light Rain
2:35 PM 60.8 °F 55.4 °F 82% 29.83 in 10.0 mi North 8.1 mph - N/A Rain Light Rain
2:55 PM 62.6 °F 55.4 °F 77% 29.83 in 10.0 mi North 10.4 mph - N/A   Clear
3:15 PM 62.6 °F 53.6 °F 72% 29.84 in 10.0 mi NNE 11.5 mph - N/A   Clear
3:35 PM 64.4 °F 51.8 °F 64% 29.84 in 10.0 mi NNE 11.5 mph - N/A   Clear
3:55 PM 66.2 °F 53.6 °F 64% 29.85 in 10.0 mi North 13.8 mph - N/A   Clear
4:15 PM 66.2 °F 48.2 °F 52% 29.84 in 10.0 mi North 16.1 mph 23.0 mph N/A   Clear
4:35 PM 66.2 °F 48.2 °F 52% 29.84 in 10.0 mi North 16.1 mph - N/A   Clear
4:55 PM 66.2 °F 50.0 °F 56% 29.84 in 10.0 mi North 12.7 mph - N/A   Clear
5:15 PM 66.2 °F 50.0 °F 56% 29.85 in 10.0 mi NNE 13.8 mph 17.3 mph N/A   Clear
5:35 PM 66.2 °F 48.2 °F 52% 29.85 in 10.0 mi North 11.5 mph 17.3 mph N/A   Partly Cloudy
5:55 PM 66.2 °F 48.2 °F 52% 29.85 in 10.0 mi NNE 12.7 mph - N/A   Clear
6:15 PM 66.2 °F 48.2 °F 52% 29.86 in 10.0 mi NNE 12.7 mph 17.3 mph N/A   Clear
6:35 PM 66.2 °F 48.2 °F 52% 29.86 in 10.0 mi NNE 12.7 mph - N/A   Partly Cloudy
6:55 PM 66.2 °F 48.2 °F 52% 29.87 in 10.0 mi North 11.5 mph - N/A   Partly Cloudy
7:15 PM 66.2 °F 46.4 °F 49% 29.87 in 10.0 mi North 12.7 mph - N/A   Partly Cloudy
7:35 PM 64.4 °F 48.2 °F 56% 29.88 in 10.0 mi North 9.2 mph - N/A   Clear
7:55 PM 64.4 °F 48.2 °F 56% 29.88 in 10.0 mi North 10.4 mph - N/A   Clear
8:15 PM 62.6 °F 50.0 °F 63% 29.89 in 10.0 mi North 6.9 mph - N/A   Clear
8:35 PM 62.6 °F 48.2 °F 59% 29.89 in 10.0 mi NNW 6.9 mph - N/A   Clear
8:55 PM 59.0 °F 50.0 °F 72% 29.89 in 10.0 mi NW 4.6 mph - N/A   Clear
9:15 PM 59.0 °F 51.8 °F 77% 29.90 in 10.0 mi NNW 5.8 mph - N/A   Clear
9:35 PM 57.2 °F 55.4 °F 94% 29.90 in 10.0 mi NW 3.5 mph - N/A   Clear
9:55 PM 57.2 °F 55.4 °F 94% 29.91 in 10.0 mi WNW 5.8 mph - N/A   Partly Cloudy
10:15 PM 55.4 °F 53.6 °F 94% 29.91 in 10.0 mi NW 4.6 mph - N/A   Partly Cloudy
10:35 PM 55.4 °F 53.6 °F 94% 29.92 in 10.0 mi NW 4.6 mph - N/A   Clear
10:55 PM 55.4 °F 53.6 °F 94% 29.92 in 10.0 mi NW 3.5 mph - N/A   Clear
11:15 PM 53.6 °F 53.6 °F 100% 29.92 in 10.0 mi NW 4.6 mph - N/A   Mostly Cloudy
11:35 PM 55.4 °F 53.6 °F 94% 29.93 in 10.0 mi NW 5.8 mph - N/A   Overcast
11:55 PM 53.6 °F 53.6 °F 100% 29.93 in 10.0 mi Calm Calm - N/A   Overcast